Location: Stara Lesna
(49.1528°N, 20.2911°E)
Time: 18:58:05
(UTC+02:00)

Cosmos 1980 Rocket - Pass Details

Date: 13 July 2020
Orbit: 828 x 851 km, 71.0° (Epoch: 10 August)

Event Time Altitude Azimuth Distance (km) Brightness Sun altitude
Rises 03:56:14 0° 327° (NNW) 3,429 5.5 -7.3°
Reaches altitude 10° 03:58:46 10° 322° (NW) 2,489 4.8 -7.0°
Maximum altitude 04:04:13 47° 250° (WSW) 1,110 2.5 -6.4°
Drops below altitude 10° 04:09:37 10° 178° (S) 2,465 4.2 -5.7°
Sets 04:12:07 0° 173° (S) 3,392 5.0 -5.4°
